Regional Weather Roundup
Issued by NWS Albany, NY

Home | Current Version | Previous Version | Text Only | Print | Product List | Glossary On
Versions: 1 2 3 4 5 6 7 8 9 10 11 12 13 14 15 16 17 18 19 20 21 22 23 24 25 26 27
000
ASUS41 KALY 271810
RWRALY

NEW YORK STATE HOURLY WEATHER ROUNDUP
NATIONAL WEATHER SERVICE ALBANY NY
200 PM EDT FRI MAY 27 2016

NOTE: "FAIR" INDICATES FEW OR NO CLOUDS BELOW 12,000 FEET WITH NO
SIGNIFICANT WEATHER AND/OR NO OBSTRUCTIONS TO VISIBILITY.

NYZ032-033-038>043-046>054-057>066-NYZ062>081-082-084-271900-
EAST


CITY           SKY/WX    TMP DP  RH WIND       PRES   REMARKS
ALBANY         CLOUDY    85  64  49 S10       30.00F
GLENS FALLS    MOSUNNY   89  63  41 SW13G20   29.97F HX  90
POUGHKEEPSIE   MOSUNNY   88  66  48 S7        30.00F HX  90
NEWBURGH       PTSUNNY   82  70  65 SE8       30.04F
MONTGOMERY     MOSUNNY   84  68  58 SW6       30.01F
WHITE PLAINS   SUNNY     83  65  54 S9        30.05F
ISLIP          MOSUNNY   73  63  70 S12       30.08S
NEW YORK CITY  MOSUNNY   86  70  58 S12       30.04F HX  90
CENTRAL PARK   SUNNY     85  64  49 VRB3      30.07S
$$

NYZ005>009-017-018-044>046-055-056-271900-
CENTRAL


CITY           SKY/WX    TMP DP  RH WIND       PRES   REMARKS
FULTON         LGT RAIN  83  71  67 NE7       29.97F
SYRACUSE       PTSUNNY   86  63  45 MISG      29.96F
ROME           MOSUNNY   85  65  51 W9        29.99F
ELMIRA         MOSUNNY   87  61  41 SW9       30.00F
BINGHAMTON     PTSUNNY   80  62  54 SW8       30.05F
MONTICELLO     PTSUNNY   73  66  78 S7        30.10R THUNDER
$$

NYZ026>034-041>043-087-271900-
NORTH


CITY           SKY/WX    TMP DP  RH WIND       PRES   REMARKS
WATERTOWN      SUNNY     79  66  64 W16       29.96F
FORT DRUM      NOT AVBL
MASSENA        MOSUNNY   87  65  47 SW17G25   29.91F
SARANAC LAKE   SUNNY     84  56  38 W15       29.99F
PLATTSBURGH    CLOUDY    85  63  47 SE14      29.91F
$$

NYZ001>004-010>016-019>021-085-271900-
WEST


CITY           SKY/WX    TMP DP  RH WIND       PRES   REMARKS
NIAGARA FALLS  MOSUNNY   81  64  56 SW15G22   29.99F
BUFFALO        MOSUNNY   79  64  60 SW13      30.01F
DUNKIRK        SUNNY     75  62  64 W10       30.03S
JAMESTOWN      MOSUNNY   81  59  47 W12       30.06F
WELLSVILLE     PTSUNNY   83  60  45 W12       30.08F
ROCHESTER      PTSUNNY   85  65  51 W12       29.98F
PENN YAN       SUNNY     86  63  45 S10       30.00F
$$

             KEY
       WCI = WIND CHILL INDEX
       VSB = VISIBILITY
       HX  = HEAT INDEX
$$




USA.gov is the U.S. government's official web portal to all federal, state and local government web resources and services.